Regional Weather Roundup
Issued by NWS Midland/Odessa, TX

Skip options and go directly to product.
Home | Oldest Version | Previous Version | Current Version | All | Text Only | Save Text | Print | Product List | Glossary Off

Skip product version selection by date and time.   

879
ASUS44 KMAF 012110
RWRMAF
MIDLAND AREA WEATHER ROUNDUP
NATIONAL WEATHER SERVICE MIDLAND TX
400 PM CDT MON SEP 01 2014

...IN SOUTHWEST TEXAS AND SOUTHEAST NEW MEXICO...

CITY           SKY/WX    TMP DP  RH WIND       PRES   REMARKS
ALPINE         SUNNY     95  44  17 N6        30.05F
ANDREWS        FAIR     102  42  13 CALM      29.87F
ARTESIA        NOT AVBL
BIG SPRING     SUNNY    102  59  24 S13       29.87F HX 102
CARLSBAD       SUNNY    102  39  11 VRB7      29.87F
DRYDEN           N/A    104  60  23 VRB5      29.84F HX 105
FORT STOCKTON  MOSUNNY  103  44  13 MISG      29.87F
GUAD PASS      SUNNY     95  41  15 W14G29    30.09F
HOBBS          SUNNY    100  37  11 VRB3      29.91F
MARFA          MOSUNNY   93  46  20 W7        30.06F
MIDLAND AIRPK  SUNNY    103  49  15 S9G17     29.86F HX 100
MIDLAND INTL   SUNNY    100  52  19 CALM      29.86F
ODESSA         SUNNY    103  43  13 SW13      29.87F
PECOS          SUNNY    102  47  15 NW6       29.82F
PRESIDIO       FAIR     103  48  15 SW7       29.87F
SEMINOLE       SUNNY    101  41  13 CALM      29.89F
SNYDER         SUNNY     99  64  31 S12G21    29.85F HX 101
WINK           SUNNY    104  40  11 W8        29.83F
$$
...OTHER STATIONS IN TEXAS...

CITY           SKY/WX    TMP DP  RH WIND       PRES   REMARKS
ABILENE        SUNNY    101  61  26 S14G24    29.84F HX 102
AMARILLO       SUNNY     92  57  30 VRB6      29.93F
AUSTIN         MOSUNNY  100  67  33 SE15G26   29.85F HX 105
BROWNSVILLE    MOSUNNY   91  77  63 SE15      29.86F HX 104
CORPUS CHRISTI MOSUNNY   91  77  63 SE17      29.88F HX 104
DALLAS FTW     PTSUNNY   96  70  42 S18G26    29.86F HX 102
DEL RIO        SUNNY     99  66  33 SE15G24   29.80F HX 103
EL PASO        MOSUNNY   98  38  12 SW17      29.96F
HOUSTON INT    PTSUNNY   88  77  70 W8        29.91F HX 100
LUBBOCK        MOSUNNY  102  50  17 SW8       29.87F
SAN ANGELO     SUNNY     99  63  30 S14G21    29.85F HX 101
SAN ANTONIO    PTSUNNY   98  65  33 SE12G22   29.87F HX 101
WACO           MOSUNNY   97  66  36 S16G22    29.86F HX 100
WICHITA FALLS  NOT AVBL
$$
...OTHER LOCATIONS IN NEW MEXICO...

CITY           SKY/WX    TMP DP  RH WIND       PRES   REMARKS
ALAMAGORDO     SUNNY     95  36  12 W10G16    29.99F
ALBUQUERQUE    MOSUNNY   90  37  15 SW12      30.06F
CANNON AFB     SUNNY     96  42  15 SW9G18    29.95F
CLOVIS           N/A     95  45  17 SW8       29.97F
HOLLOMAN AFB   SUNNY     95  36  12 W9        29.96F
ROSWELL        SUNNY     99  42  14 SE8G23    29.90F
RUIDOSO        SUNNY     84  37  18 N5        30.20F
SANTA FE       SUNNY     88  32  13 W13G30    30.10F
TRUTH OR CONSE SUNNY     92  36  14 E8        30.01F
TUCUMCARI      SUNNY     95  44  17 S7        29.92F
$$

USA.gov is the U.S. government's official web portal to all federal, state and local government web resources and services.